Вернуться в каталог

STARLINK-35868

АктивенСвязьVLEO
NORAD 66579·PAYLOAD·🇺🇸 United States

Запущен Nov 21, 2025 с Cape Canaveral Space Force Station

Loading…

Ближайшие Пролёты (ближайшие 24 часа)

TLE

СвежийSource: CelesTrak SupGP

Эпоха: Sep 15, 2026, 03:17 UTC

1 66579C 25268Y   26258.13729167  .00046378  00000+0  16794-2 0  2589
2 66579  43.0036 357.0763 0001655 262.5394 120.3961 15.27563427    15

Отслеживайте STARLINK-35868 в реальном времени с AllMySat

Download on the App Store